OpenBCM V1.13 (Linux)

Packet Radio Mailbox

DB0FHN

[JN59NK Nuernberg]

 Login: GUEST





  
LU1HVK > KEP      03.09.19 19:03l 244 Lines 12026 Bytes #999 (0) @ WW
BID : 30952_LU1HVK
Read: DJ6UX DF7EAV GUEST
Subj: TLE 03 09
Path: DB0FHN<OE2XZR<OE1XAB<HG8LXL<XE1FH<LU3DVN<LU9HGS<LU1HVK
Sent: 190903/1602Z 30952@LU1HVK.2594.CBA.ARG.SA LinBPQ6.0.18

                         _    _   _ _ _   ___     ___  __
                        | |  | | | / | | | \ \   / / |/ /
                        | |  | | | | | |_| |\ \ / /| ' /
                        | |__| |_| | |  _  | \ V / | . \
                        |_____\___/|_|_| |_|  \_/  |_|\_\

     BBS/NODO - CORDOBA (LEONES-FF87UH) - LU1HVK-4 NODO - LU1HVK-3 APRS

+----------------------------------------------------------------------------+
OSCAR 7
1  7530U 74089B   19246.15709559 -.00000043  00000-0  14545-4 0  9997
2  7530 101.7516 213.0557 0011887 198.1441 229.4792 12.53639522 50103
OSCAR 11 (UoSAT 2)
1 14781U 84021B   19246.14140947  .00000039  00000-0  10892-4 0  9994
2 14781  97.6080 267.2299 0009963  72.2812 287.9489 14.83103506910096
OSCAR 19 (LUSAT)
1 20442U 90005G   19245.92019219 -.00000006 +00000-0 +14157-4 0  9999
2 20442 098.6523 187.8085 0010682 287.0472 072.9541 14.32931505547233
EYESAT A
1 22825U 93061C   19245.97338115 -.00000013  00000-0  12962-4 0  9995
2 22825  98.9087 236.3699 0009202 131.9181 228.2786 14.30065420352850
ITAMSAT
1 22826U 93061D   19246.51687960 -.00000016  00000-0  11625-4 0  9990
2 22826  98.9029 236.9080 0009854 120.3062 239.9095 14.30399303353134
RADIO ROSTO
1 23439U 94085A   19245.87855791 -.00000052 +00000-0 -27934-3 0  9995
2 23439 064.8201 352.9202 0145719 098.4605 263.2864 11.27568324016485
JAS 2
1 24278U 96046B   19246.52658494 -.00000037  00000-0 -25359-5 0  9994
2 24278  98.5488  29.5443 0351006  40.9427 321.7512 13.53093121138196
TECHSAT 1B
1 25397U 98043D   19246.43647418 -.00000013  00000-0  13323-4 0  9990
2 25397  98.6919 185.6644 0001740 133.9243 226.2079 14.23669743 98797
ISS (ZARYA)
1 25544U 98067A   19246.54658942  .00017077  00000-0  30171-3 0  9992
2 25544  51.6466 332.5817 0008458   0.6483 128.9617 15.50424315187410
PCSAT
1 26931U 01043C   19246.19648408 -.00000015  00000-0  26054-4 0  9999
2 26931  67.0515 166.2606 0007474 272.8776  87.1470 14.30550859935919
SAUDISAT 1C
1 27607U 02058C   19245.92848778 -.00000019 +00000-0 +18187-4 0  9991
2 27607 064.5549 176.5106 0077935 241.8287 117.4927 14.75568249898159
CUTE-1
1 27844U 03031E   19245.91671907 +.00000025 +00000-0 +31026-4 0  9996
2 27844 098.6849 252.9922 0010092 163.9865 196.1634 14.22192192839083
CUBESAT XI 4
1 27848U 03031J   19246.49357188  .00000015  00000-0  26627-4 0  9996
2 27848  98.6926 254.0768 0009795 173.7253 186.4048 14.21785786839056
MOZHAYETS 4
1 27939U 03042A   19246.38274851  .00000112  00000-0  28675-4 0  9995
2 27939  98.0520  20.7492 0013183 179.5546 180.5683 14.66799557851782
CUBESAT XI 5
1 28895U 05043F   19245.86879551 +.00000101 +00000-0 +28212-4 0  9995
2 28895 097.9699 026.0341 0018160 110.0513 250.2647 14.63686305738394
CUTE-1.7+APD II
1 32785U 08021C   19246.46364799  .00000203  00000-0  27490-4 0  9997
2 32785  97.5531 242.5694 0013468  15.3361 344.8262 14.88337966615107
DELFI C3
1 32789U 08021G   19246.30796400  .00000852  00000-0  60776-4 0  9996
2 32789  97.4582 293.6401 0011191 216.7746 143.2715 15.07079254618500
SEEDS
1 32791U 08021J   19246.01709882  .00000388  00000-0  44701-4 0  9999
2 32791  97.5299 248.1907 0013048 350.8583   9.2396 14.90859414615482
YUBELEINY
1 32953U 08025A   19246.50665365  .00000020  00000-0  75656-4 0  9990
2 32953  82.5003  96.9979 0019233 324.3276  35.6514 12.43091072511859
PRISM (HITOMI)
1 33493U 09002B   19246.34556397  .00001049  00000-0  97316-4 0  9991
2 33493  98.1204 170.2058 0013547 292.7696  67.2092 14.96717730576618
KKS-1 (KISEKI)
1 33499U 09002H   19245.83274464  .00000066  00000-0  17727-4 0  9998
2 33499  98.3461  86.9534 0008539 331.8992  28.1755 14.75458505570459
SWISSCUBE
1 35932U 09051B   19245.51878000 +.00000101 +00000-0 +33805-4 0  9992
2 35932 098.5955 053.7428 0006531 297.1609 062.8922 14.56304683527770
BEESAT
1 35933U 09051C   19245.72329055  .00000070  00000-0  26868-4 0  9993
2 35933  98.5977  55.7449 0004883 313.9832  46.0962 14.56391270527959
ITUPSAT 1
1 35935U 09051E   19246.16857483  .00000043  00000-0  21017-4 0  9996
2 35935  98.6087  56.4361 0007141 306.9653  53.0889 14.55548470527768
XIWANG-1 (HOPE-1)
1 36122U 09072B   19245.74039674 -.00000001  00000-0  10814-3 0  9992
2 36122 100.0751 244.5519 0007291 167.1476 192.9811 13.16351263466885
TISAT 1
1 36799U 10035E   19245.98012901  .00000490  00000-0  55447-4 0  9996
2 36799  98.1655  40.7066 0012055 189.7679 170.3305 14.91144287496136
JUGNU
1 37839U 11058B   19245.32946312  .00000324  00000-0  30959-4 0  9995
2 37839  19.9601 236.1013 0019131  81.1012  53.2094 14.12657239407961
SRMSAT
1 37841U 11058D   19246.47783552  .00000311  00000-0  25784-4 0  9996
2 37841  19.9719 287.5031 0011762 321.1910 174.7929 14.10637732407544
M-CUBED/EXP-1 PRIME
1 37855U 11061F   19246.49339448  .00000943  00000-0  55063-4 0  9992
2 37855 101.7105 181.5116 0173059 209.0664 150.0828 15.05557067428335
HORYU 2
1 38340U 12025D   19246.39707654  .00000150  00000-0  29979-4 0  9997
2 38340  98.3234 287.2658 0010433 235.8954 124.1265 14.75743198392479
STRAND 1
1 39090U 13009E   19245.57407334 +.00000004 +00000-0 +16587-4 0  9993
2 39090 098.4823 090.2369 0010303 066.2437 293.9828 14.35095085341257
SOMP
1 39134U 13015E   19245.86761020  .00001214  00000-0  64298-4 0  9992
2 39134  64.8632 133.6210 0035190 290.4967  69.2384 15.20284843352179
BEESAT 3
1 39135U 13015F   19246.18884262  .00001001  00000-0  58997-4 0  9996
2 39135  64.8693 151.9611 0031537 303.3564  56.4545 15.17573123351852
BEESAT 2
1 39136U 13015G   19245.85938412  .00001070  00000-0  63584-4 0  9991
2 39136  64.8687 157.0637 0023407 304.7970  55.0952 15.16988226351720
CUBEBUG 1
1 39153U 13018D   19246.26633261  .00000173  00000-0  29540-4 0  9990
2 39153  97.9804 343.9697 0015848 313.6776  46.3122 14.80588649343146
ZACUBE
1 39417U 13066B   19246.51812296  .00000161  00000-0  26501-4 0  9992
2 39417  97.5626 255.7029 0059949 140.9303 219.6263 14.81141439312413
TRITON 1
1 39427U 13066M   19246.48487875  .00000196  00000-0  39600-4 0  9992
2 39427  97.6840 219.1483 0112316 279.8152  79.0387 14.67872294309609
GOMX 1
1 39430U 13066Q   19246.41993861  .00000182  00000-0  41952-4 0  9994
2 39430  97.7518 197.9434 0151869  12.7779 347.7203 14.59277142307792
HUMSAT D
1 39433U 13066T   19246.12498859  .00000423  00000-0  46468-4 0  9997
2 39433  97.5475 290.4822 0031886  47.9063 312.4860 14.92237258314479
CUBEBUG 2
1 39440U 13066AA  19245.88846122 +.00000146 +00000-0 +27374-4 0  9994
2 39440 097.6061 239.8419 0079724 196.3989 163.4640 14.75879076310014
FUNCUBE 1
1 39444U 13066AE  19245.73345506 +.00000234 +00000-0 +34995-4 0  9997
2 39444 097.5603 256.9809 0059147 137.0914 223.4937 14.81965297310608
UWE-3
1 39446U 13066AG  19246.50668613  .00000152  00000-0  26737-4 0  9996
2 39446  97.5835 247.5275 0070280 168.1472 192.1415 14.78414146310617
SPROUT
1 39770U 14029E   19246.52572053  .00000459  00000-0  56823-4 0  9999
2 39770  97.8884 349.3362 0008128 184.9989 175.1149 14.87402600286252
UNISAT 6
1 40012U 14033C   19246.18132664  .00000141  00000-0  28508-4 0  9994
2 40012  97.7473 109.4599 0057472 209.9271 149.8649 14.74000805279950
DUCHIFAT 1
1 40021U 14033M   19245.79940393  .00000451  00000-0  51836-4 0  9990
2 40021  97.9226 170.6442 0013339 153.0860 207.1052 14.90669414282889
QB50P1
1 40025U 14033R   19245.90768732 +.00000244 +00000-0 +31881-4 0  9990
2 40025 097.9031 165.4630 0012712 162.1887 197.9778 14.88973352282159
CHUBUSAT 1
1 40300U 14070C   19246.23766492  .00000784  00000-0  37022-4 0  9997
2 40300  97.3220 318.4695 0020367 143.2246 251.4522 15.22149921267662
NUDT-PHONESAT
1 40900U 15049B   19246.46323066  .00001990  00000-0  87618-4 0  9997
2 40900  97.4376 255.0518 0011096 278.7253 216.8268 15.22982963219347
ZDPS 2A
1 40901U 15049C   19246.42586069  .00000830  00000-0  44361-4 0  9998
2 40901  97.4605 251.1449 0012317 301.7765 194.9066 15.17807141218872
ZDPS 2B
1 40902U 15049D   19246.38826084  .00001163  00000-0  61058-4 0  9990
2 40902  97.4551 248.5456 0012048 298.1048 167.6980 15.17650905218848
XW-2A
1 40903U 15049E   19246.42669757  .00002050  00000-0  49972-4 0  9995
2 40903  97.3314 289.6048 0012245 222.5382 262.1472 15.42038326222071
KAITUO 1A
1 40904U 15049F   19246.47336627  .00000807  00000-0  46139-4 0  9998
2 40904  97.4684 247.1749 0013364 306.8515 206.1079 15.15415288218620
OBJECT G
1 40905U 15049G   19246.40199581  .00000624  00000-0  37608-4 0  9996
2 40905  97.4727 244.5764 0014435 301.4710 168.3046 15.14332533218482
XW-2C
1 40906U 15049H   19246.58381791  .00000569  00000-0  33322-4 0  9999
2 40906  97.4686 247.3958 0013401 296.4563 180.4548 15.15733869218642
XW-2D
1 40907U 15049J   19246.55270954  .00000671  00000-0  38451-4 0  9997
2 40907  97.4667 247.0460 0012826 294.6968 187.0665 15.15926356218655
LILACSAT 2
1 40908U 15049K   19246.41068694  .00000576  00000-0  35469-4 0  9999
2 40908  97.4806 245.6585 0014565 301.2257 196.6430 15.13838904218410
XW-2F
1 40910U 15049M   19246.31020039  .00000773  00000-0  42027-4 0  9999
2 40910  97.4635 248.9159 0013190 286.8083 197.9086 15.17387685218638
XW-2B
1 40911U 15049N   19246.46305383  .00000680  00000-0  38997-4 0  9992
2 40911  97.4691 247.6202 0012668 295.0433 220.2651 15.15855699218536
KAITUO 1B
1 40912U 15049P   19246.49297150  .00001119  00000-0  55520-4 0  9997
2 40912  97.4503 252.8561 0013131 265.1654 247.2657 15.19713253218970
TIANWANG 1C (TW-1C)
1 40926U 15051B   19246.36477346  .00017110  00000-0  23806-3 0  9997
2 40926  97.1287 292.4732 0009256  86.6370  44.1272 15.56980546222081
TIANWANG 1B (TW-1B)
1 40927U 15051C   19246.40202693  .00015771  00000-0  23336-3 0  9993
2 40927  97.1331 291.7275 0010206  97.5792  29.2417 15.55315449221933
